Theta_e
315 316 318 317 318 318 315 312 312 313 314 313 313 313 312 310 310 311 311 311 312 313 313 312 313 316 317 315 318 323 325 326 327 328 329 329 329 329 330 329 330 331 332 332 334 334 333 332 333 334 335 336 337 338 337 336 336 336 336 335 335 334 334 334 334 334 335 335 335 335 335 335 334 334 334 335 336 337 335 335 335 336 337 338 337 337
316 315 318 318 317 316 315 315 313 313 314 313 313 312 312 311 310 312 312 312 315 316 313 313 315 317 318 316 319 324 325 326 327 328 328 329 329 329 329 329 329 329 328 329 331 332 332 331 331 332 332 333 334 335 336 335 335 334 334 334 335 335 334 335 335 335 335 334 335 335 334 334 335 334 334 334 335 336 336 336 336 335 336 337 336 336
316 318 320 317 316 316 316 317 315 315 315 314 314 313 313 312 312 313 314 313 315 316 314 314 314 315 317 317 319 324 324 325 326 327 328 328 329 328 328 328 328 329 329 329 328 329 331 331 331 331 331 332 332 333 333 333 333 333 332 332 333 334 334 334 334 335 335 334 334 334 334 334 335 335 334 333 334 335 337 337 336 335 335 336 336 336
317 322 326 319 317 317 317 316 316 316 316 316 314 313 313 313 312 314 316 314 315 315 314 316 317 315 315 318 322 323 323 324 324 325 327 327 328 328 327 327 328 329 330 330 329 328 329 330 330 330 331 331 331 332 333 332 331 332 333 333 333 334 334 334 334 334 334 335 334 333 334 333 334 335 334 334 333 334 337 338 336 335 335 336 336 336
318 321 322 319 318 318 317 317 318 315 317 321 316 311 314 314 313 315 316 317 320 320 317 320 323 319 316 320 324 324 323 324 324 325 326 327 327 327 326 326 327 329 330 330 331 330 328 329 329 329 330 330 330 332 333 333 331 331 332 333 334 334 334 334 334 333 333 334 334 334 334 334 333 335 334 333 332 333 335 337 338 337 336 337 337 336
318 317 317 318 318 317 317 318 317 314 318 323 319 315 315 315 315 315 315 320 324 321 318 321 320 317 317 322 324 323 324 324 323 325 326 326 326 326 326 327 327 328 329 329 330 329 328 328 329 328 330 330 330 331 332 333 333 331 331 331 332 333 334 334 333 333 333 333 334 334 335 334 334 334 334 334 332 332 334 335 337 339 338 338 336 336
318 317 317 318 316 317 320 319 317 319 320 320 318 317 315 316 316 314 314 318 319 317 317 319 317 315 318 322 323 322 324 324 323 324 324 324 324 325 325 326 327 327 328 328 328 327 327 328 328 328 329 330 330 330 330 331 332 332 332 331 331 332 333 334 333 333 333 333 334 334 335 334 334 334 334 333 331 331 334 333 335 337 339 339 337 335
320 320 321 320 318 320 322 320 319 321 320 319 320 318 316 316 315 315 315 314 315 316 318 319 320 320 320 321 322 321 323 324 324 323 323 322 322 322 323 324 326 327 327 327 328 328 327 327 328 328 328 329 329 330 330 331 331 332 332 332 332 332 333 334 334 333 333 333 333 334 335 335 335 334 334 333 330 330 332 332 333 335 337 339 337 335
321 321 320 320 321 322 321 319 318 317 319 321 322 318 316 316 316 317 315 315 316 317 320 325 321 319 321 322 321 321 324 324 323 323 323 323 322 321 322 323 325 327 326 326 327 327 325 325 326 327 327 328 328 329 330 331 331 332 332 332 333 333 333 334 333 333 334 333 334 333 333 334 334 334 334 333 332 331 331 331 332 333 334 337 337 336
321 320 319 319 320 321 319 319 318 316 318 321 319 318 318 317 318 319 315 316 319 318 322 327 321 319 324 326 323 321 324 326 324 324 323 323 323 322 322 323 325 325 325 325 324 323 323 323 324 325 326 327 328 328 329 331 332 332 333 332 332 333 334 334 334 333 333 334 334 332 332 333 334 334 335 334 333 333 333 333 334 334 334 335 335 335
319 320 321 319 318 319 318 320 318 314 316 318 318 320 320 319 322 325 322 317 317 322 325 323 321 323 325 327 328 327 327 328 325 325 323 322 324 323 322 323 324 325 325 325 324 322 321 322 323 324 325 326 327 327 328 331 331 332 333 332 332 333 334 334 334 333 333 333 333 332 331 333 334 335 335 335 335 335 335 335 335 334 334 335 334 333
322 324 324 320 319 319 318 321 321 318 318 317 319 319 319 324 329 332 330 319 316 324 325 319 319 322 324 326 330 330 328 326 324 325 324 324 324 323 323 323 323 325 325 326 327 324 321 321 322 323 323 325 326 326 327 329 331 331 332 332 332 333 333 334 333 333 333 333 333 332 333 334 334 333 333 334 334 335 335 335 334 334 334 334 333 332
331 330 325 320 320 318 319 325 325 325 324 322 328 329 323 325 326 328 330 321 322 327 321 318 319 321 328 331 329 326 326 326 325 324 325 325 324 323 323 323 322 323 325 326 327 327 322 320 321 322 322 323 325 326 326 327 329 330 331 331 331 332 333 333 331 331 331 331 331 331 332 334 334 333 333 334 334 334 334 334 334 334 334 333 333 333
335 333 327 325 324 319 320 326 325 327 326 322 331 334 328 326 322 324 329 324 327 331 322 320 319 319 326 329 326 326 325 326 326 324 324 325 324 323 323 322 322 322 325 326 327 328 324 320 320 321 321 322 323 325 325 326 327 328 329 329 329 331 332 332 331 330 331 331 330 330 330 332 334 335 334 333 333 333 334 334 334 334 333 333 333 333
330 331 331 326 323 320 319 322 322 324 324 320 323 325 326 332 330 327 329 326 326 330 327 323 318 321 328 326 323 326 325 324 325 324 324 324 323 323 322 322 323 322 324 325 326 326 322 319 320 320 320 321 322 323 324 325 326 327 328 328 328 329 331 332 332 332 333 332 332 332 331 331 333 334 334 333 333 333 334 335 334 334 333 333 333 334
325 328 332 325 320 319 318 320 319 318 323 324 321 322 325 331 335 331 328 329 329 327 328 327 321 324 329 325 321 324 325 324 325 326 325 324 323 323 323 323 324 324 324 324 326 325 320 319 320 319 320 321 321 321 322 323 325 326 327 327 327 328 329 330 331 332 332 332 332 333 332 331 330 332 333 333 333 333 333 334 334 334 334 333 334 334
324 328 331 325 322 321 317 320 319 316 325 327 320 325 328 324 332 333 325 326 327 324 325 327 325 325 325 324 322 322 325 324 324 327 327 325 324 323 323 324 323 324 324 324 324 322 319 318 319 319 320 321 320 320 321 322 324 324 325 326 326 327 327 329 330 331 331 330 330 332 332 330 329 331 333 333 334 333 333 333 333 334 334 334 335 335
323 328 331 324 321 323 319 319 322 320 323 326 324 329 327 318 324 330 327 327 325 323 326 326 328 328 324 326 325 323 325 325 324 327 326 324 324 324 323 322 322 323 323 323 322 319 317 317 318 319 320 320 320 320 320 321 322 322 324 325 325 326 326 327 329 330 330 329 329 330 330 330 330 331 332 333 334 334 333 333 333 334 334 334 335 336
322 327 333 327 321 325 325 321 326 328 323 323 328 328 324 322 325 326 326 327 324 324 325 322 325 327 326 328 327 323 325 325 325 326 325 324 324 323 322 321 320 322 322 321 322 321 317 316 317 318 319 320 319 320 320 319 320 321 322 323 323 323 325 326 326 327 327 328 329 329 328 329 331 331 331 334 335 334 333 333 333 334 333 333 334 335
324 325 332 332 324 325 331 327 328 333 326 322 325 322 322 328 330 326 324 324 324 325 324 321 322 327 329 330 328 325 324 324 325 325 324 324 324 323 323 323 322 322 322 320 323 323 317 315 317 318 318 319 318 319 319 318 319 320 321 322 322 322 323 324 325 325 325 326 328 329 328 329 331 331 331 334 335 334 333 333 333 333 333 333 333 333
328 325 328 334 328 324 332 330 328 331 326 323 325 322 321 325 324 324 324 323 324 325 326 324 324 331 334 330 328 327 324 322 323 325 324 324 323 323 324 324 324 324 323 322 324 322 316 314 317 318 317 318 317 318 318 318 318 319 319 320 321 321 320 321 324 325 324 324 325 327 327 328 329 330 331 333 333 333 333 332 332 332 333 333 333 333
328 326 325 330 327 324 333 331 325 326 322 321 326 326 327 326 324 324 324 323 323 323 327 327 326 334 335 328 328 329 324 322 321 323 324 322 322 323 323 324 325 325 325 326 326 321 314 314 317 317 317 317 317 317 317 317 318 318 318 318 318 319 319 319 322 323 323 323 324 324 325 326 327 328 330 330 330 330 331 331 332 332 332 333 333 333
329 328 324 326 326 324 327 327 323 324 322 321 324 326 329 329 327 328 327 326 324 323 326 325 324 332 333 327 330 330 323 321 320 320 322 320 321 323 323 324 325 325 326 327 324 318 313 314 316 316 317 316 316 316 316 316 317 317 317 317 317 318 318 318 320 322 323 322 322 323 323 323 324 325 327 328 328 328 328 329 330 331 331 332 332 333
327 327 325 327 330 327 327 330 330 327 322 321 323 323 326 328 327 329 331 329 325 326 327 322 322 332 334 328 329 327 322 321 319 319 320 319 320 322 323 324 323 323 324 324 321 315 313 314 315 315 316 316 316 316 316 316 316 316 316 317 317 317 317 318 319 321 321 321 321 321 322 322 322 322 323 325 326 326 326 326 327 328 327 327 329 331
321 326 328 327 329 330 330 332 333 330 325 325 330 326 324 326 325 325 328 326 323 327 327 324 327 334 332 327 326 323 321 321 319 318 318 318 319 320 322 323 322 322 322 322 321 318 314 314 314 314 314 314 315 315 315 315 314 314 314 315 316 316 316 317 318 319 320 320 319 320 320 321 321 321 321 321 322 323 323 324 324 324 324 325 326 327
324 329 330 327 327 329 330 330 332 333 328 325 328 326 323 324 324 324 325 324 324 327 326 325 332 333 327 324 324 322 321 321 319 318 318 318 318 319 320 322 322 322 321 320 321 320 316 314 313 313 313 313 314 314 315 314 313 313 313 313 314 315 315 317 318 318 318 318 318 318 319 320 320 320 320 320 320 321 321 322 322 322 322 323 324 324
329 329 329 329 330 329 329 331 330 328 324 322 323 325 324 324 324 325 325 326 327 327 325 327 332 330 326 324 323 321 320 320 320 319 319 319 318 319 321 321 321 322 321 321 322 321 318 316 313 312 313 313 313 314 314 313 313 313 312 312 313 313 314 316 317 317 317 318 318 317 318 319 318 319 319 319 319 320 320 320 320 320 320 321 321 321
329 326 330 330 329 329 327 328 327 323 322 324 324 326 326 325 324 325 325 327 328 326 327 331 330 327 328 326 322 321 320 319 319 320 320 320 319 320 320 320 321 322 321 321 322 322 321 318 314 312 313 313 312 313 313 313 312 312 311 311 312 313 313 314 316 316 316 317 317 317 318 318 318 318 318 318 318 318 318 319 319 318 319 319 319 319
330 325 330 328 328 332 329 327 328 324 323 325 325 326 327 326 326 325 323 325 325 324 329 334 330 327 329 327 321 320 320 319 319 320 319 320 319 319 319 319 320 321 320 321 321 322 322 319 314 313 313 313 312 312 313 312 311 311 311 311 312 312 312 312 313 314 314 315 315 315 317 317 317 317 317 316 317 317 317 317 317 317 317 317 317 316
329 328 331 327 325 331 330 327 327 324 324 326 325 326 328 327 327 326 323 324 325 325 328 332 330 328 328 327 323 319 319 319 318 319 320 320 320 319 319 319 319 319 319 320 320 321 322 317 312 312 313 312 312 312 312 311 311 310 310 311 311 311 311 311 311 311 312 312 313 314 315 315 315 316 316 316 316 315 316 315 316 316 315 315 315 315
324 327 330 327 325 330 332 329 326 325 325 327 327 327 326 326 327 324 321 322 323 324 325 328 329 329 328 328 324 320 320 320 319 320 321 320 320 319 318 317 318 317 317 318 318 319 320 316 310 311 313 312 312 311 310 310 310 309 310 310 310 310 310 310 310 310 310 311 312 314 314 314 314 314 314 315 315 314 314 314 315 314 314 313 313 313
323 325 330 328 324 328 333 328 324 325 324 324 326 326 325 325 327 325 324 325 324 324 324 324 328 332 330 325 323 321 321 320 320 320 320 319 319 319 318 317 317 316 316 317 316 317 319 316 311 311 312 312 312 311 310 310 309 309 309 309 309 309 310 309 309 309 309 310 312 313 313 313 313 313 313 313 313 313 313 313 313 313 312 312 312 312
327 327 329 327 324 328 332 327 323 323 322 323 326 325 324 325 326 325 324 324 324 325 325 324 328 332 329 323 322 322 321 321 320 319 319 319 318 317 318 317 316 316 316 316 315 316 316 314 311 310 311 311 311 310 310 310 310 309 309 308 308 309 309 309 308 309 309 310 311 312 312 312 312 312 312 312 312 311 311 311 311 311 310 310 310 310
329 328 328 326 325 330 331 325 322 319 320 326 330 327 323 324 324 323 323 326 326 325 325 326 328 328 325 323 324 323 321 320 319 318 317 318 317 317 317 317 316 316 315 314 315 314 312 310 310 310 310 310 310 310 310 310 310 310 309 308 308 308 308 308 308 308 309 310 311 311 311 312 312 312 311 311 311 310 310 309 309 309 308 308 308 309
328 327 327 324 324 329 329 323 322 323 326 331 330 325 324 327 327 324 327 332 331 324 323 326 326 325 323 322 322 321 320 320 319 318 318 317 317 317 317 317 317 316 314 314 314 312 309 309 310 310 309 310 310 310 310 309 309 310 309 308 308 308 308 308 307 308 308 309 310 311 311 311 311 311 310 310 310 309 308 308 308 307 308 308 308 308
329 328 327 323 324 327 325 320 322 325 327 328 324 319 319 323 323 320 322 330 332 327 326 328 325 322 321 321 320 319 319 319 319 318 318 318 318 318 318 318 318 315 312 312 311 310 309 309 309 309 309 310 310 310 309 308 308 309 309 309 308 307 307 307 307 307 308 309 310 310 310 310 310 310 309 309 308 308 308 307 307 307 307 308 307 307
328 328 325 322 323 324 323 324 326 323 321 323 324 321 320 321 323 322 321 329 337 332 325 325 324 321 320 320 320 320 319 318 319 320 319 318 318 318 317 316 314 312 310 310 310 310 310 310 310 309 309 309 309 310 309 308 308 309 308 308 308 307 306 306 306 306 307 309 310 310 310 310 309 309 308 308 308 308 307 307 307 307 307 307 307 307
325 326 326 324 323 322 321 325 325 322 323 328 327 326 329 331 332 327 319 324 336 331 322 323 324 322 321 321 320 319 319 319 321 321 318 317 318 318 315 311 309 310 309 309 310 310 310 310 310 309 309 309 309 309 309 308 308 308 308 308 307 307 306 306 306 306 306 308 309 310 310 309 309 308 307 307 307 307 307 307 306 307 307 307 307 307
323 324 325 324 323 323 322 323 323 322 326 330 329 328 329 328 333 331 320 323 334 328 319 323 327 322 320 320 319 317 318 321 321 319 317 318 317 316 315 311 309 310 310 310 310 310 310 310 309 309 309 309 309 309 308 308 308 308 308 307 307 307 306 305 306 305 307 308 309 310 309 308 309 308 306 306 307 307 307 307 306 307 307 307 307 307
323 323 324 323 324 325 323 324 325 324 323 325 329 330 327 325 329 326 319 325 337 328 318 322 325 321 318 318 317 316 317 320 319 317 318 317 314 312 312 311 310 309 309 310 310 310 310 310 309 309 309 309 308 308 308 308 308 308 308 308 308 307 306 305 305 305 307 309 309 309 309 308 309 308 306 306 308 307 307 307 307 307 307 307 307 308
326 324 323 323 325 326 324 323 324 325 328 331 331 329 325 322 323 320 321 329 334 327 323 324 322 318 316 317 316 315 317 318 318 318 317 315 312 312 311 310 310 310 310 310 310 310 310 310 309 309 309 309 308 308 308 308 308 307 308 308 307 306 305 305 305 305 306 307 308 308 308 309 309 307 306 307 308 307 307 307 306 306 307 307 307 308
326 325 323 323 325 325 324 323 322 323 329 331 327 323 320 318 322 328 332 330 325 324 325 325 322 318 316 316 317 318 319 318 316 316 314 313 314 314 310 308 309 309 309 310 310 309 309 309 309 310 309 309 309 308 307 307 307 308 308 307 306 306 305 304 304 305 305 305 307 308 308 308 309 307 306 307 308 308 307 307 306 306 306 306 306 307
325 325 326 325 325 324 322 321 322 325 329 325 319 318 318 320 330 337 332 323 322 324 323 321 323 321 316 316 319 320 320 317 315 314 313 314 315 312 308 308 308 308 309 309 310 310 310 309 309 309 309 309 309 308 307 307 307 307 307 307 306 305 304 304 305 306 304 304 307 308 307 308 309 307 307 308 308 308 308 307 306 305 306 306 306 306
323 324 328 327 326 325 324 323 324 330 333 325 319 322 324 325 333 335 326 320 321 323 322 320 320 319 317 318 319 318 318 316 315 315 315 314 314 312 309 307 307 308 308 309 309 310 309 309 308 308 308 309 308 308 308 307 307 307 306 306 306 304 304 304 305 305 304 305 307 307 307 308 308 307 308 308 308 308 308 307 306 305 305 306 306 305
324 324 329 331 327 326 327 329 329 333 334 326 324 330 329 326 331 332 326 323 323 321 321 322 321 318 316 318 317 316 316 316 314 315 316 315 314 313 309 307 307 307 307 308 309 309 308 308 307 307 308 308 308 308 308 307 308 308 307 306 305 304 303 305 305 304 304 306 307 307 307 307 305 306 308 308 308 308 308 307 306 304 303 304 305 305
324 319 322 327 326 323 323 325 324 326 328 324 324 331 329 325 329 328 323 324 325 321 320 321 322 319 316 315 316 315 315 316 315 315 315 314 313 311 307 306 306 306 307 307 308 308 308 307 307 308 308 308 308 308 308 308 308 307 307 307 305 303 303 305 304 303 304 306 307 307 307 305 304 306 308 307 307 308 306 306 307 304 301 301 304 306
321 316 317 321 321 320 325 330 325 321 323 322 321 326 326 323 325 324 322 323 324 321 319 319 320 318 316 315 316 316 316 316 316 316 315 315 315 311 306 305 306 306 306 307 306 307 307 306 307 308 307 307 308 308 308 308 308 307 307 306 304 303 304 304 303 302 304 306 307 306 307 306 305 306 307 307 306 306 304 304 305 304 301 300 302 304
319 315 321 323 320 321 329 334 328 322 323 321 319 321 322 321 323 323 323 323 322 319 318 317 315 317 317 316 316 317 317 315 314 315 315 314 313 309 305 305 306 306 307 307 307 307 307 306 306 307 306 307 307 307 308 309 308 307 307 305 303 303 303 303 302 303 304 306 306 306 306 306 305 306 307 307 306 305 305 304 304 303 302 300 300 301
317 315 324 325 321 322 326 325 322 320 322 322 321 321 320 321 323 323 321 321 319 318 318 315 313 314 315 316 317 317 316 314 313 314 314 314 311 307 305 306 307 307 307 308 308 308 307 307 307 306 306 307 307 307 308 308 307 308 306 303 302 303 302 302 302 302 302 304 306 306 304 304 305 306 306 306 306 306 305 305 304 303 302 301 301 301
317 318 324 323 320 322 323 322 320 319 322 324 323 320 319 320 321 322 321 320 318 318 319 317 314 312 311 311 313 315 317 315 311 311 313 312 309 306 306 306 307 307 308 308 308 308 308 308 308 306 306 307 307 307 308 308 308 308 305 303 302 302 301 302 303 303 303 304 306 306 303 302 304 306 305 305 306 306 305 305 305 304 303 302 302 302
321 323 327 327 328 328 326 326 324 322 323 326 324 321 320 320 319 320 322 320 317 317 318 318 318 317 314 310 308 311 315 314 309 309 312 310 307 306 307 307 307 307 308 308 308 309 309 309 309 308 308 308 308 308 308 308 308 307 304 303 303 302 302 302 302 303 303 304 305 305 303 302 304 305 305 305 306 305 305 305 305 305 304 303 303 302
Wind_Speed
3 2 1 3 4 6 7 6 7 7 6 3 3 2 3 3 4 5 2 4 8 6 0 4 8 8 7 9 13 13 14 16 14 12 10 9 9 8 9 9 9 8 5 7 12 14 15 14 13 11 8 5 2 1 2 6 11 12 14 20 24 27 25 23 28 31 31 28 22 21 18 16 21 17 10 18 29 29 29 29 27 26 23 21 21 21
4 2 5 6 7 8 7 5 5 4 3 3 2 3 5 3 5 5 3 2 5 6 1 3 9 7 6 7 11 14 14 13 13 13 11 11 10 9 11 10 9 6 5 7 9 11 14 14 14 13 11 7 3 1 2 6 11 12 13 17 20 22 24 24 28 31 33 33 30 28 27 21 19 21 12 9 21 27 27 29 29 29 27 25 24 22
2 3 7 8 7 5 1 1 3 5 4 3 3 3 4 4 5 5 5 4 4 5 1 3 9 6 4 7 6 9 11 9 9 11 11 11 11 9 10 9 8 7 6 6 7 9 12 13 14 14 13 11 7 5 2 5 9 12 11 13 16 18 22 23 25 30 33 36 36 34 33 27 20 21 18 8 11 22 25 28 30 30 30 28 27 26
2 5 8 6 2 3 4 5 6 6 4 2 3 3 3 3 3 3 5 7 5 3 2 4 6 3 5 9 7 6 8 9 9 10 9 10 11 10 9 9 8 8 7 6 5 6 9 12 14 14 14 13 9 7 5 4 5 9 11 12 14 16 20 24 25 27 31 33 36 36 35 32 25 23 24 15 10 16 23 25 29 30 30 29 28 28
3 6 4 1 4 6 5 6 5 5 4 4 1 1 1 2 2 1 2 5 6 4 2 6 5 3 4 8 6 6 7 9 8 10 9 8 9 9 8 8 9 8 7 6 5 4 7 10 12 13 13 13 11 8 7 5 3 4 9 13 15 16 19 22 25 25 26 28 31 33 30 28 27 24 25 21 15 12 18 22 26 28 28 28 28 27
2 5 4 5 5 6 5 5 5 3 2 4 2 0 2 3 1 1 1 4 5 5 2 5 5 3 4 6 5 3 6 7 4 7 9 7 7 8 7 8 8 7 6 6 5 4 6 8 10 13 13 13 12 9 8 6 4 3 7 12 14 16 18 19 22 24 24 26 29 31 29 27 28 25 25 27 23 16 14 17 22 26 27 27 28 26
2 5 7 5 4 6 6 4 4 3 4 2 3 2 4 6 5 5 4 5 3 2 4 3 5 2 2 4 2 2 6 6 4 5 7 6 6 6 7 7 8 7 6 5 5 4 6 8 9 11 11 11 11 10 8 6 5 3 5 9 13 16 18 19 20 22 24 25 28 31 32 30 30 28 27 30 29 22 16 15 18 22 26 27 27 27
2 7 9 7 6 6 5 4 3 2 5 2 5 3 6 6 6 4 5 4 2 2 4 3 4 4 1 1 2 2 7 6 4 4 4 5 6 6 7 7 8 7 6 5 4 4 5 7 8 8 9 9 9 9 8 6 6 5 4 6 9 12 15 19 20 22 24 23 25 28 29 29 31 31 30 30 29 27 21 17 17 20 24 27 28 28
2 7 7 5 6 4 3 4 6 3 2 5 6 5 6 3 3 3 5 3 1 3 4 6 1 3 1 3 4 1 5 5 2 3 3 4 5 6 7 7 7 6 6 6 5 4 5 8 8 7 8 9 8 8 9 6 5 5 5 4 5 8 13 16 17 21 24 22 19 20 20 22 26 29 29 28 28 28 25 20 20 21 23 25 27 27
2 2 5 2 4 1 3 5 6 6 3 6 4 5 5 4 3 4 5 3 4 4 2 7 1 3 1 3 3 1 4 5 4 3 3 3 4 6 7 7 7 6 5 5 5 6 8 9 9 8 8 9 8 8 9 7 4 4 5 4 4 6 11 13 14 19 24 22 19 17 17 18 21 23 24 25 25 26 25 21 20 21 23 24 25 26
3 3 4 1 2 2 3 4 4 4 3 3 5 5 5 6 5 4 4 4 4 2 4 6 2 4 1 3 4 3 4 6 6 4 3 3 5 5 6 7 6 5 5 4 4 6 9 10 10 10 10 9 9 9 9 7 5 4 6 4 3 6 9 12 13 18 21 23 23 22 20 19 19 21 21 23 23 23 23 22 20 20 20 22 23 24
7 4 2 1 1 1 2 3 5 5 4 4 4 3 3 5 5 5 5 4 3 3 4 6 6 5 2 4 4 3 4 5 7 6 6 5 5 5 5 6 5 5 5 4 4 5 8 10 10 10 11 10 9 10 10 8 6 5 5 5 2 6 11 12 12 15 18 20 23 24 23 21 20 19 20 20 20 20 21 21 20 19 18 18 20 21
6 3 3 4 2 1 4 3 5 6 6 5 4 5 3 2 3 3 3 1 1 4 3 4 5 3 2 5 4 2 3 5 5 6 7 7 6 5 5 5 5 5 5 4 4 4 5 6 8 9 10 10 8 9 10 8 7 6 5 4 3 4 9 10 8 11 14 16 20 23 22 22 21 21 21 20 18 18 19 19 19 19 18 17 18 20
4 5 5 5 3 1 4 3 2 3 4 4 2 3 3 2 2 1 3 1 2 4 3 3 3 0 2 3 3 4 4 5 4 5 5 5 6 6 5 5 5 5 5 4 4 3 4 4 6 8 9 10 9 9 9 8 7 6 5 5 3 3 5 6 7 9 12 14 17 18 18 19 21 22 21 22 20 18 17 18 19 20 20 20 20 20
1 3 4 1 2 3 2 3 3 3 1 1 2 4 3 3 4 2 3 2 2 3 4 4 1 2 2 3 4 5 4 5 6 5 5 5 5 5 5 5 5 5 5 4 4 4 3 4 5 6 6 8 9 9 8 9 7 5 6 6 5 3 2 3 5 6 9 12 15 16 17 20 22 22 22 22 21 19 16 16 17 18 19 19 19 17
2 3 6 4 3 1 2 2 1 3 2 2 1 4 1 3 4 2 2 4 3 1 3 2 0 2 3 2 2 2 4 5 6 5 6 6 5 5 5 4 5 5 4 4 4 3 3 2 2 3 4 6 8 10 9 9 8 6 6 6 6 6 3 1 2 3 6 11 14 14 16 20 22 21 22 22 20 17 15 13 14 16 18 17 17 15
1 4 6 4 4 1 1 1 2 4 2 2 2 1 3 3 5 4 1 1 3 2 2 1 1 2 1 1 2 3 5 4 5 5 5 5 5 6 5 4 4 4 4 4 4 2 1 1 0 1 2 3 5 8 10 9 7 7 7 6 7 7 6 3 1 2 4 8 12 12 13 18 21 19 19 19 17 13 13 14 13 14 16 16 16 16
2 3 6 3 3 4 2 2 3 2 3 3 1 3 2 2 4 3 1 2 3 1 3 2 2 2 1 1 3 4 6 4 4 5 5 4 5 5 4 4 4 4 4 3 3 1 2 1 1 1 1 0 3 5 8 8 8 7 7 7 8 8 7 6 4 2 0 3 6 10 13 16 17 16 16 16 15 14 14 16 14 12 12 12 14 15
3 1 6 2 1 6 4 5 3 5 2 4 3 3 2 2 0 1 2 1 1 2 3 3 2 3 4 4 5 7 8 7 6 5 6 5 5 5 4 4 4 4 4 3 1 2 4 3 4 3 2 1 1 2 5 8 9 7 5 6 8 8 7 8 8 6 4 4 1 6 12 12 12 13 14 14 14 14 14 14 13 11 10 9 10 13
2 2 4 5 2 3 5 4 0 5 5 3 2 2 1 3 3 2 2 3 3 2 2 2 2 3 5 5 7 10 10 9 8 6 6 6 6 5 4 4 3 3 3 2 1 4 4 4 4 4 2 1 2 1 3 6 8 7 4 3 6 8 8 8 7 8 10 9 2 4 7 5 9 12 14 13 12 12 11 11 11 10 10 10 11 12
2 3 2 6 4 3 2 1 3 4 1 2 2 0 0 1 2 1 1 2 3 2 2 2 2 5 5 4 7 9 9 9 9 8 7 6 5 5 4 4 3 2 0 2 3 4 4 4 4 6 3 1 2 1 1 5 5 6 6 5 6 7 9 10 7 5 10 13 6 4 9 8 5 11 15 14 12 12 10 10 11 10 11 11 12 12
1 1 1 3 4 1 3 4 2 4 4 3 2 3 3 3 3 2 2 2 2 2 3 4 3 6 5 3 5 7 7 8 9 8 7 6 6 5 4 4 4 2 1 4 4 4 5 4 4 7 4 3 4 4 3 7 8 7 8 9 8 7 8 11 9 4 5 9 9 9 13 14 13 15 17 15 12 10 9 8 8 9 10 11 11 10
2 3 2 2 3 3 6 6 3 2 3 5 2 3 3 3 4 4 3 3 0 1 1 2 1 6 5 3 5 5 6 7 8 8 7 6 6 6 5 4 4 3 3 4 4 5 6 4 3 7 4 3 4 4 4 8 11 9 8 9 9 9 9 9 8 6 4 5 7 10 12 13 15 19 20 18 16 14 12 11 9 7 6 7 7 7
1 3 2 3 4 3 5 5 4 3 4 4 0 1 3 3 3 4 4 3 1 2 1 1 2 5 5 2 4 4 5 6 6 8 9 7 5 5 5 5 4 3 3 4 4 7 6 3 3 2 1 1 1 1 2 8 12 10 7 5 5 8 9 8 5 6 6 6 7 8 10 11 13 17 20 19 19 18 17 16 14 13 11 9 7 6
1 0 2 2 4 5 5 6 6 5 2 1 2 2 3 4 4 2 1 3 1 3 4 3 3 5 5 1 4 4 4 5 6 7 8 7 6 5 5 5 5 4 4 5 5 5 2 4 6 6 6 5 2 1 6 10 11 10 8 4 3 5 8 8 6 5 6 6 8 8 8 9 11 14 17 17 18 17 17 18 17 16 16 14 12 11
2 2 3 3 2 0 1 2 3 3 2 1 1 2 4 4 5 3 1 3 1 3 4 4 4 5 4 1 4 4 5 6 6 6 6 6 7 6 6 5 5 5 5 6 5 3 1 3 4 5 7 6 5 8 12 12 11 10 9 6 5 6 7 8 7 7 7 7 8 8 8 8 9 12 14 14 15 15 14 14 14 15 16 16 16 17
3 1 2 5 5 5 5 5 4 2 1 2 3 3 5 5 5 4 3 2 3 3 3 4 5 3 4 3 5 6 7 7 7 7 6 5 6 6 6 5 5 5 5 5 5 3 3 3 3 4 4 6 6 9 13 13 12 10 9 7 6 7 8 8 7 7 8 7 8 8 8 9 10 11 12 13 13 13 12 11 11 13 15 15 16 17
4 1 2 5 6 6 7 7 5 3 3 4 5 5 6 6 6 6 3 4 4 4 4 7 5 4 6 7 8 8 9 8 8 8 8 7 6 6 5 5 5 5 4 4 4 4 4 3 1 2 2 6 7 8 14 14 12 10 8 6 6 7 8 7 6 6 7 7 8 8 8 9 9 9 11 12 13 13 13 13 12 13 13 14 15 16
5 1 4 4 4 6 6 6 4 4 3 4 4 6 6 6 7 8 8 7 6 5 6 6 6 7 7 7 10 10 10 10 10 9 8 7 6 6 5 6 6 6 5 4 5 5 4 4 3 3 2 3 6 10 16 14 12 11 9 6 5 6 7 6 5 6 7 7 7 7 8 10 10 10 10 11 12 13 13 13 12 12 12 13 14 15
3 2 4 3 2 7 7 5 5 5 4 4 4 7 7 7 8 8 8 8 8 7 7 5 7 9 7 7 9 9 8 9 8 7 7 7 7 7 7 7 7 6 6 6 6 5 4 5 7 6 6 2 3 9 15 14 13 12 10 7 5 6 6 6 7 7 9 10 9 8 10 11 12 12 12 12 13 12 12 11 10 10 11 12 12 13
2 2 3 3 2 6 7 4 4 8 8 6 6 8 8 7 7 6 6 6 6 7 6 5 6 8 6 5 6 6 6 7 7 7 8 8 8 9 8 8 8 7 8 7 6 6 5 6 8 8 7 4 0 8 15 15 14 11 8 6 5 6 5 7 9 10 11 12 11 11 12 12 12 13 14 14 12 11 11 10 9 9 10 10 10 11
2 1 1 4 3 5 5 4 2 4 5 5 7 10 10 7 5 5 5 5 6 6 4 3 3 6 5 3 4 6 8 9 9 10 9 8 8 10 10 10 9 9 9 8 7 6 6 7 8 8 7 2 2 11 17 15 13 11 9 8 6 5 4 8 11 11 12 13 12 13 13 12 12 13 13 12 12 11 11 10 9 9 10 11 11 11
4 2 0 2 0 5 5 4 4 1 1 3 7 10 11 9 6 5 4 5 6 6 5 4 5 6 4 4 6 6 8 10 10 10 9 9 9 10 10 10 10 10 9 8 8 8 9 10 11 8 9 8 9 15 16 14 13 10 8 9 8 7 7 9 11 11 11 12 12 13 13 12 12 12 11 11 11 11 11 11 10 10 10 10 10 9
4 5 2 3 2 5 6 4 4 2 0 5 7 8 11 10 8 7 5 5 6 5 4 4 4 4 6 6 8 9 10 11 11 11 10 10 9 9 10 10 9 8 8 8 9 10 11 13 14 13 14 14 13 12 10 9 10 8 7 8 8 9 9 9 10 10 11 12 12 12 12 12 11 12 11 10 10 10 11 12 11 11 10 10 9 9
4 5 3 2 3 3 4 5 4 2 6 7 6 3 8 9 9 8 5 5 7 6 2 2 4 7 9 9 9 10 11 10 9 9 10 9 9 9 10 9 7 7 8 9 9 11 13 15 14 15 16 15 12 10 8 7 8 9 10 10 9 11 11 9 10 10 10 11 11 11 11 11 11 11 10 10 10 10 11 11 10 9 9 10 10 10
6 4 3 2 2 1 2 2 1 5 7 6 8 4 2 4 5 4 3 7 6 7 6 6 7 9 9 8 7 8 7 6 5 6 8 9 9 9 9 7 7 8 10 11 12 14 16 16 15 17 17 14 13 12 10 8 9 12 14 12 12 14 13 11 11 11 10 10 10 10 10 10 10 11 10 10 9 10 10 10 8 7 8 8 9 8
7 5 2 2 2 1 1 2 2 4 5 6 5 4 3 4 4 5 3 7 6 6 8 8 8 8 8 7 7 5 5 5 3 5 7 8 9 9 8 8 10 10 11 15 18 20 20 19 17 15 14 14 15 14 11 8 10 14 14 13 14 15 14 12 11 10 9 9 9 9 9 8 9 10 10 9 8 9 9 9 8 7 7 8 8 8
6 5 4 3 2 1 2 1 3 3 3 6 7 7 5 4 6 7 3 4 7 5 7 8 9 9 9 7 6 5 6 5 3 6 7 8 9 7 7 9 12 14 14 17 21 22 22 21 18 15 14 15 15 13 11 9 11 13 13 12 12 12 12 12 11 9 8 8 8 9 7 7 8 8 8 8 7 7 8 8 9 10 9 9 10 10
4 3 5 4 2 0 3 1 2 2 5 7 9 9 6 3 7 7 3 4 7 5 6 8 9 9 10 9 8 8 6 5 6 7 7 8 8 8 8 9 12 16 18 21 24 24 23 21 19 16 13 13 14 13 12 11 12 12 12 12 11 10 9 9 9 8 8 8 9 8 7 6 6 6 7 7 7 7 7 7 9 10 9 8 8 8
3 3 4 4 3 2 3 2 3 3 6 7 7 7 5 4 8 8 2 6 6 5 5 8 9 9 10 10 9 8 8 7 7 7 6 7 8 9 12 12 13 17 19 22 24 23 22 22 20 16 13 12 14 15 13 13 12 13 12 12 11 9 8 9 8 7 9 11 10 9 7 6 5 5 5 5 6 7 7 7 8 9 8 7 6 5
2 1 2 4 4 4 4 3 3 3 6 8 6 6 5 4 6 3 4 7 5 5 5 7 10 9 8 9 8 7 7 7 6 5 7 9 8 9 13 17 19 21 21 22 23 22 23 23 20 16 14 13 14 16 16 15 14 14 14 13 10 9 9 9 7 8 9 10 9 8 7 6 5 5 5 4 4 6 6 6 8 8 7 8 7 5
2 1 1 3 4 3 4 3 3 4 7 7 5 4 4 4 1 5 6 4 5 6 5 5 8 8 8 8 7 6 5 4 4 7 10 11 10 9 11 14 17 18 18 20 20 19 20 20 17 15 15 14 14 17 17 15 14 15 15 13 11 10 8 6 6 8 8 6 6 6 6 7 7 6 6 4 3 4 6 6 7 8 7 8 9 8
5 3 2 3 4 2 2 2 2 4 7 5 6 3 1 3 5 6 3 2 4 6 5 5 6 7 8 8 6 5 6 5 6 8 9 9 10 9 10 13 14 14 14 16 18 17 17 17 14 14 16 15 13 15 17 16 16 16 14 12 11 9 6 6 7 7 5 5 7 6 6 9 9 7 6 5 4 4 7 7 7 8 7 6 7 8
3 4 3 3 3 3 3 4 4 5 6 5 7 5 5 6 6 5 5 4 4 4 5 5 5 6 9 9 7 7 8 7 8 8 8 8 8 8 10 12 13 14 14 16 18 18 18 17 13 12 14 14 14 17 19 17 17 15 12 10 9 6 6 8 8 5 4 6 6 5 7 11 10 7 8 8 5 5 8 9 9 7 5 5 6 7
7 7 5 3 4 4 5 6 6 5 5 5 6 6 6 7 6 6 7 6 4 5 5 5 5 6 8 10 10 9 9 9 9 9 9 8 8 8 9 12 14 17 18 18 20 21 19 18 17 16 16 16 17 19 18 16 15 13 11 10 7 5 8 10 8 5 6 7 5 6 11 12 9 8 8 6 5 7 10 12 10 6 5 5 6 7
7 6 3 2 3 3 3 4 5 3 4 6 7 5 6 7 6 6 7 6 5 6 5 5 7 7 7 9 10 9 8 8 9 8 8 8 7 7 10 13 15 19 21 21 22 23 22 20 20 20 19 19 19 18 17 16 15 12 11 10 7 7 11 12 8 7 8 7 5 7 11 10 8 8 6 3 6 10 11 12 10 6 5 6 7 7
2 4 3 1 2 2 3 5 5 5 6 8 8 6 5 6 7 6 7 6 6 6 6 6 9 9 8 9 10 9 7 8 8 7 7 7 8 8 11 13 15 19 23 25 25 24 22 21 19 19 18 18 18 18 19 18 15 11 10 10 9 10 12 11 8 8 9 9 5 6 9 9 7 7 6 6 10 13 10 8 8 6 6 8 9 8
2 3 4 3 3 4 5 7 6 5 7 7 6 6 6 6 7 6 5 6 6 6 7 8 10 10 8 8 9 9 8 7 8 8 7 7 8 9 12 15 18 21 23 23 23 22 21 20 18 16 16 16 17 19 21 18 14 12 12 12 11 12 11 9 8 8 10 9 7 6 9 9 5 5 8 10 11 10 7 5 7 7 7 8 9 9
1 2 3 3 3 2 5 6 3 2 5 6 6 8 7 6 7 6 5 7 7 7 7 8 10 10 10 10 9 9 9 8 7 8 9 7 7 10 14 18 22 23 21 19 20 22 22 21 20 19 18 17 17 18 20 19 16 15 15 14 14 13 11 9 9 9 10 10 8 7 10 9 5 5 8 9 8 8 5 4 5 6 6 6 6 6
2 3 2 2 2 2 5 5 1 1 4 7 8 10 10 7 7 7 6 7 9 9 9 8 7 7 10 12 12 11 10 8 8 9 9 8 9 14 19 21 21 21 21 21 22 23 22 20 20 21 20 19 18 18 19 20 19 17 17 16 15 13 10 9 10 10 10 10 9 8 9 9 7 7 8 7 8 9 7 5 6 6 5 4 4 3
4 5 4 4 4 5 6 7 4 4 4 7 7 9 9 7 8 8 8 9 10 10 10 10 8 5 6 10 14 16 13 10 11 11 8 8 13 19 21 22 21 20 21 23 23 23 23 21 19 19 18 17 17 18 20 22 21 20 20 18 16 13 12 12 11 9 8 9 10 10 10 10 9 8 8 8 7 8 7 7 7 7 5 4 3 2
Wind_Direction
117 80 280 216 229 245 256 239 216 231 233 245 282 337 295 280 294 278 233 154 141 111 91 151 133 153 156 128 122 122 118 120 129 131 130 130 125 119 109 102 95 94 97 81 72 66 62 58 56 57 59 53 44 133 173 202 205 207 203 205 214 219 221 218 213 216 216 212 209 209 225 229 204 205 227 203 197 202 202 201 204 204 201 195 193 195
86 135 241 228 223 236 245 237 233 262 310 7 29 3 339 323 312 323 54 86 107 94 346 104 114 147 162 130 129 129 125 129 137 134 132 128 119 113 106 101 97 94 89 77 68 60 58 53 48 47 48 46 29 349 220 220 206 194 191 200 211 216 217 218 215 215 216 212 207 204 211 228 217 203 218 219 195 198 203 201 202 204 203 202 199 194
91 219 249 242 227 225 231 75 27 353 3 20 22 29 352 330 325 344 18 4 56 94 295 64 102 134 117 90 102 118 118 124 129 123 125 121 112 110 108 106 101 88 71 59 53 51 52 46 41 36 29 23 9 1 323 246 220 201 197 206 212 214 216 217 215 214 214 213 211 208 205 214 224 207 202 230 210 193 199 201 200 203 205 206 207 203
180 255 247 234 198 81 26 17 30 7 3 7 5 29 322 323 20 5 345 344 11 90 135 82 91 103 72 74 55 55 97 108 108 109 112 114 115 119 119 116 108 99 87 66 53 49 50 45 37 31 23 14 3 0 352 312 255 221 217 216 213 215 219 220 218 216 214 212 212 212 210 209 216 211 198 216 245 197 192 200 200 203 206 207 209 208
206 269 261 95 46 55 28 352 23 28 351 321 333 84 308 338 77 200 300 355 5 11 80 84 60 3 44 82 63 32 80 96 101 106 102 101 110 114 113 112 109 108 108 92 77 58 51 47 38 33 28 20 15 8 360 352 318 243 223 219 219 224 228 225 222 219 212 206 205 207 210 209 211 211 201 209 242 216 186 196 201 203 207 207 208 208
257 300 359 47 15 37 56 3 5 54 360 319 311 95 18 31 31 287 41 53 34 350 319 96 76 348 7 70 75 47 83 84 78 103 108 109 112 114 113 111 108 106 108 106 108 97 68 55 46 41 36 33 29 15 2 4 358 289 235 226 229 231 235 235 227 223 216 204 199 199 201 203 203 205 203 204 224 228 192 192 202 202 205 207 207 208
341 354 24 38 8 28 53 16 350 95 96 329 266 277 7 32 19 11 45 70 89 274 276 102 115 162 351 29 37 84 97 84 57 90 115 127 125 126 124 116 114 112 110 107 111 110 85 64 54 45 38 40 38 22 1 350 356 334 255 242 242 237 237 241 232 225 222 209 202 201 200 203 201 202 206 204 214 233 222 202 204 204 204 206 208 209
334 13 21 23 24 30 34 1 306 108 95 278 262 319 10 26 12 12 57 69 150 229 312 359 110 135 92 317 252 120 94 76 54 74 106 130 128 127 126 123 123 122 118 110 105 101 85 69 60 51 41 42 39 28 14 347 343 343 309 271 257 247 242 243 234 222 221 214 207 206 204 205 202 202 205 203 210 230 234 219 214 209 206 208 209 210
338 23 2 3 31 30 360 316 302 1 57 258 271 346 4 1 354 25 53 39 25 54 345 317 32 106 155 206 226 170 103 100 98 105 117 133 132 121 118 121 120 118 114 109 108 101 80 64 56 52 44 41 37 29 21 5 348 341 324 295 263 248 243 243 234 219 215 212 209 209 207 206 204 202 203 203 209 222 228 225 221 215 210 208 208 210
334 349 296 340 62 14 290 299 326 3 326 273 311 12 15 1 2 24 32 24 32 50 302 281 318 111 198 226 212 183 135 154 173 172 153 137 123 113 111 115 115 112 109 103 103 97 77 60 52 47 44 39 37 36 28 20 16 7 345 307 257 237 240 242 233 219 212 209 208 208 208 209 203 199 199 199 205 214 220 223 221 216 211 207 207 211
291 273 275 36 122 225 276 301 341 1 312 320 6 25 22 4 10 21 16 55 55 4 266 282 333 112 173 257 205 195 204 181 168 176 179 126 106 113 113 116 120 116 113 109 98 88 73 61 52 44 41 38 36 38 36 34 34 28 18 351 271 232 233 234 226 219 213 212 213 207 205 210 203 194 192 194 200 207 212 219 220 217 213 210 212 217
330 339 330 312 224 227 17 348 337 350 7 33 33 40 28 342 2 18 356 42 82 263 265 311 352 80 133 246 231 238 233 185 163 167 167 140 123 124 114 114 124 122 117 112 95 78 65 56 46 35 31 31 33 34 32 34 44 46 36 25 323 239 230 225 217 214 212 215 221 214 205 208 203 193 190 189 193 200 206 212 216 217 218 218 220 224
330 311 298 305 290 117 75 15 335 346 15 41 44 56 69 335 3 9 317 342 196 239 248 336 2 58 198 239 236 227 179 179 182 169 158 151 142 129 118 116 120 122 119 110 97 82 69 55 39 28 18 14 21 30 29 28 38 48 47 52 37 271 246 238 228 218 217 221 224 218 210 207 201 193 191 189 189 197 204 208 210 214 220 225 227 228
328 311 322 341 327 283 114 94 327 321 10 41 76 100 114 106 71 279 273 289 272 259 266 325 4 53 276 277 221 176 156 164 157 145 151 149 139 133 130 123 108 109 118 115 112 101 86 67 43 27 10 5 14 26 30 27 31 42 45 56 48 319 268 248 241 231 231 232 226 221 219 212 204 199 197 196 196 200 206 211 213 218 223 226 231 233
52 312 309 324 303 319 76 127 198 200 55 15 147 130 133 146 145 199 231 203 234 272 294 311 342 160 206 264 226 185 158 129 115 127 136 122 126 131 122 112 103 103 116 119 126 132 107 75 50 34 10 3 11 16 21 26 28 34 40 51 60 38 341 253 234 226 233 236 232 233 232 221 211 206 203 201 202 202 204 211 217 223 228 230 233 234
112 258 262 261 264 325 35 304 228 102 68 298 62 87 123 189 147 152 194 179 175 264 313 305 229 194 198 249 266 156 127 116 121 131 123 112 119 121 110 116 120 116 123 119 121 136 127 94 63 42 12 351 3 13 17 29 36 36 39 42 51 66 69 307 259 247 246 238 231 232 232 223 211 202 198 197 198 197 200 209 218 221 223 228 233 233
51 275 273 305 326 300 188 276 58 94 150 285 34 100 231 179 118 115 211 353 83 106 281 249 165 308 312 302 301 134 129 129 134 129 127 132 126 121 130 144 141 135 129 120 112 124 166 162 158 43 36 344 348 7 14 27 41 43 48 47 48 68 89 107 186 244 260 248 238 233 227 220 211 200 191 189 189 189 196 205 212 214 216 225 235 234
135 287 286 330 337 288 249 92 53 73 134 109 148 213 225 61 77 101 119 357 45 126 269 257 188 227 183 230 260 177 166 182 168 141 133 134 122 127 147 146 136 131 118 111 105 54 279 252 282 298 113 8 332 1 16 28 41 44 48 55 56 57 66 72 67 64 332 276 259 251 238 220 208 197 184 182 186 188 194 200 201 205 212 221 229 230
121 334 295 298 279 291 334 63 23 328 21 118 173 188 112 88 22 61 119 153 120 192 268 287 238 215 200 216 215 192 193 198 188 159 140 139 133 131 133 121 112 112 111 103 53 298 280 268 269 259 187 177 276 356 23 32 38 44 53 63 62 53 51 59 54 43 10 344 281 253 252 228 198 179 171 177 187 190 197 205 207 208 213 216 219 222
110 96 286 291 292 321 358 44 356 303 335 30 58 54 80 142 160 176 178 161 154 186 235 278 299 249 231 211 189 197 201 185 179 176 162 164 158 142 132 117 96 95 127 140 264 270 283 294 263 232 204 211 232 296 27 43 36 37 62 82 62 50 46 47 49 51 36 21 2 275 293 253 185 164 157 161 170 175 185 200 206 208 213 220 224 225
62 96 246 296 333 22 358 267 179 191 276 10 26 8 338 103 119 162 219 152 141 160 186 187 253 261 250 205 181 199 202 183 180 179 175 177 161 145 135 121 99 58 341 268 269 265 294 314 241 207 196 198 183 194 98 85 65 46 60 72 59 43 36 33 36 58 52 47 58 49 28 36 112 143 149 153 157 162 168 178 188 191 196 205 213 219
66 112 183 296 330 349 254 258 201 171 165 145 182 199 175 144 124 121 281 275 147 157 178 166 222 266 258 190 177 197 197 187 182 170 170 174 156 149 143 136 140 143 246 267 269 270 296 315 245 214 188 127 128 138 110 93 94 81 66 63 59 46 28 26 33 49 51 50 63 76 66 59 76 109 133 148 148 149 155 159 170 185 196 201 205 212
139 110 97 274 260 240 259 274 277 218 137 113 156 193 148 126 124 138 210 253 244 241 215 135 211 271 264 184 170 192 188 180 176 163 156 160 156 158 160 161 171 181 231 263 281 280 292 324 253 221 202 143 138 142 114 97 98 96 77 59 50 45 30 21 39 72 85 63 65 79 78 68 77 96 113 130 134 129 126 125 131 150 173 180 186 201
88 92 77 293 296 298 292 302 315 340 70 89 199 204 140 145 157 162 179 172 172 253 198 107 253 270 277 221 156 171 171 157 164 161 151 155 162 164 169 179 194 211 253 274 289 284 291 26 90 165 143 98 184 213 129 108 103 100 92 67 38 34 28 21 42 74 86 85 75 81 82 71 75 86 94 110 122 122 118 115 117 116 112 120 138 153
265 130 87 38 354 344 336 343 341 341 13 158 234 233 191 163 137 127 88 104 157 233 164 149 236 257 279 270 127 142 153 146 165 169 156 157 163 172 181 188 195 214 248 259 270 277 292 63 77 80 64 43 20 101 120 112 104 96 88 76 44 30 27 32 50 62 68 69 58 62 75 73 73 77 81 91 101 106 109 110 111 108 106 114 119 114
156 171 112 114 118 201 268 280 267 277 298 256 235 221 215 183 146 144 104 106 218 236 162 158 226 262 289 237 146 165 164 155 170 173 163 164 167 177 185 186 195 209 227 241 250 247 159 75 55 62 64 50 68 120 128 118 108 96 80 67 54 43 40 47 59 66 64 55 42 46 59 61 62 67 71 78 85 91 98 101 100 96 98 106 106 101
91 139 140 149 168 193 207 228 227 180 144 261 257 238 221 203 175 140 108 147 199 197 200 220 209 227 271 226 186 191 177 168 174 170 171 179 177 181 184 188 201 205 216 235 235 211 158 103 44 29 33 32 58 122 136 122 115 107 85 71 61 49 48 52 60 65 63 58 50 50 59 60 57 60 65 70 79 87 92 95 96 92 92 96 97 96
82 336 247 179 199 220 216 227 222 166 188 232 240 240 226 203 171 148 171 210 174 141 245 251 198 186 242 223 198 197 186 177 179 176 181 187 181 182 186 198 214 215 220 238 224 191 167 148 99 18 349 2 35 118 139 125 119 115 92 74 68 56 49 51 60 63 62 69 61 49 59 66 62 63 69 71 75 82 88 92 93 92 91 91 89 89
109 244 239 196 239 256 241 234 203 170 226 246 238 236 227 210 184 180 208 214 171 171 239 241 190 198 232 220 202 201 187 180 185 183 181 179 176 181 189 204 223 225 220 232 226 199 177 183 200 190 203 345 43 122 140 133 124 119 104 87 74 60 48 48 67 77 74 74 62 57 73 77 71 73 75 75 76 79 83 86 86 85 84 83 81 80
109 227 231 184 279 286 275 248 187 183 234 253 250 247 235 228 217 206 219 217 190 206 233 216 203 220 228 214 210 204 184 178 180 171 166 170 178 188 198 208 218 220 216 221 216 199 196 215 223 212 197 212 68 127 139 133 122 117 111 106 84 60 50 56 76 88 79 66 62 77 89 81 73 75 76 76 78 77 76 73 70 67 66 68 71 71
94 245 237 112 30 299 282 264 189 195 216 226 242 251 245 246 247 235 238 226 204 233 245 202 207 241 250 222 206 186 164 164 165 168 176 183 186 194 204 210 214 214 215 214 203 195 207 224 235 230 211 225 22 130 136 128 118 116 115 111 77 43 48 71 80 82 74 65 71 87 89 79 75 74 75 77 75 69 63 55 46 40 35 37 44 49
135 239 326 70 30 284 276 319 313 208 213 242 259 254 243 237 235 229 225 211 201 219 227 163 202 249 251 204 166 160 162 167 174 181 187 191 193 197 204 210 213 213 211 208 197 190 199 218 231 220 195 211 97 130 139 136 126 121 116 105 72 39 74 96 88 80 71 69 78 86 82 77 75 71 67 69 68 62 55 45 34 25 17 15 18 20
146 149 98 101 120 272 276 320 327 14 76 284 261 238 227 224 226 235 241 225 202 179 164 190 226 232 208 151 144 164 173 177 185 188 189 193 198 203 210 212 210 210 209 202 190 188 199 211 209 175 131 117 123 133 140 139 128 117 114 109 84 70 98 104 93 85 77 75 80 83 80 77 75 70 64 59 56 51 43 36 31 25 17 15 14 14
147 133 164 156 150 271 288 333 352 10 244 255 246 212 202 205 208 216 229 227 212 187 169 208 220 187 166 161 166 178 185 189 192 191 189 191 194 203 215 219 214 207 197 186 180 182 189 192 181 148 121 121 132 134 135 135 118 100 116 126 98 86 101 100 90 89 84 81 85 85 82 79 76 74 68 56 43 33 28 26 25 24 20 16 17 22
151 139 170 164 141 245 306 19 27 268 236 250 278 240 190 185 178 187 225 244 223 213 193 184 183 175 179 187 184 183 192 194 189 189 193 194 193 198 210 218 212 192 176 173 174 174 178 179 164 138 127 132 141 144 144 138 112 99 120 131 107 97 107 106 95 93 88 87 93 92 87 85 83 79 71 58 45 37 34 31 29 32 35 35 34 35
152 151 168 178 159 233 344 56 181 251 259 281 311 312 182 146 129 146 274 280 235 201 187 188 197 193 191 199 197 187 188 181 174 195 203 198 196 199 202 202 191 178 169 169 171 171 174 173 152 130 128 136 146 150 145 126 108 111 122 125 111 103 107 105 97 93 92 94 98 97 94 93 92 87 78 67 58 55 53 50 50 55 59 54 48 41
143 145 162 216 215 183 189 215 242 294 302 297 292 269 197 172 158 154 214 271 254 205 184 182 195 199 194 201 203 181 146 123 154 235 229 210 206 204 196 183 176 172 166 165 171 173 171 166 152 140 142 145 146 148 143 127 122 124 123 120 115 110 105 101 95 89 91 101 108 107 102 98 98 93 83 74 72 73 71 66 67 73 73 64 56 52
155 164 174 196 223 120 124 287 330 346 292 258 246 255 251 190 160 137 138 277 276 237 187 168 177 191 192 192 186 155 119 120 186 237 233 216 210 197 177 172 167 161 156 156 162 167 166 163 160 157 155 150 147 146 145 143 140 134 129 125 122 117 108 103 99 92 92 108 118 113 103 97 99 92 78 72 76 84 86 81 76 76 77 77 73 70
155 134 132 149 208 126 127 196 246 223 253 251 242 260 269 177 127 94 65 292 275 244 192 161 166 181 182 177 166 146 137 166 212 232 222 203 195 175 162 161 156 152 151 151 154 161 165 165 162 158 155 153 152 153 157 157 147 137 137 136 130 124 113 110 109 101 103 119 127 118 105 100 101 88 76 77 85 92 97 96 86 79 77 77 75 77
131 96 117 157 208 211 164 205 237 229 259 261 241 241 236 146 95 73 20 269 259 237 197 162 164 180 175 164 160 156 165 189 211 225 206 179 171 161 151 148 149 151 152 153 156 162 166 164 161 160 164 165 162 160 165 164 148 137 140 140 133 128 126 128 127 117 117 124 127 119 105 102 108 97 86 96 103 98 99 98 89 79 69 57 57 77
133 123 157 177 199 196 179 222 266 255 255 256 236 212 188 117 76 92 223 239 220 211 210 163 160 182 175 156 165 182 195 210 212 196 167 151 151 155 152 152 156 159 159 161 163 166 167 166 166 168 176 182 176 169 167 160 145 140 144 142 137 137 139 140 141 140 136 129 125 123 115 116 127 115 107 126 126 109 109 102 87 78 65 54 55 71
161 168 169 161 182 191 179 209 280 286 257 230 191 180 155 121 151 222 223 215 172 189 213 166 155 180 179 166 180 192 197 212 185 155 154 154 153 156 155 152 156 160 163 166 170 170 165 163 167 176 185 192 185 175 169 157 143 143 146 145 144 145 146 148 146 147 146 137 136 144 144 147 146 127 123 154 162 129 130 120 96 86 80 72 70 76
173 174 209 190 180 156 150 193 254 278 258 204 139 113 112 161 204 218 200 198 189 185 188 163 155 175 176 176 192 175 152 155 152 147 155 158 152 153 158 158 161 164 163 165 172 175 166 160 169 187 196 200 194 184 177 163 151 152 153 152 152 152 155 160 152 145 146 155 160 166 168 165 158 138 137 163 174 151 151 142 116 100 96 89 82 82
181 172 197 217 191 140 151 207 218 226 237 197 151 168 211 204 200 174 153 190 221 197 182 169 168 180 171 164 168 158 149 156 159 155 159 162 155 155 161 161 159 157 157 162 169 172 167 162 165 179 190 194 187 179 174 165 156 155 157 158 158 161 170 169 162 156 160 168 170 169 163 160 156 147 153 160 163 159 157 149 134 117 112 116 105 95
213 193 176 186 198 181 182 207 220 223 225 207 183 192 204 206 202 170 157 176 205 205 196 169 165 184 173 155 154 160 166 170 167 164 167 168 163 159 161 159 153 150 152 158 161 164 166 164 158 156 163 170 172 171 172 170 163 162 168 173 169 173 181 175 167 163 167 171 168 153 154 155 149 153 163 165 164 164 160 155 147 125 114 133 129 115
218 188 136 132 215 239 241 228 230 237 219 208 210 212 196 194 199 180 167 179 195 199 192 161 159 175 172 157 155 165 178 177 169 172 173 162 152 154 157 156 154 152 153 156 159 164 168 166 161 157 158 163 169 173 175 176 176 179 185 186 181 182 182 176 169 167 173 179 170 150 155 157 153 163 181 188 162 157 154 155 153 129 110 131 141 140
249 149 137 162 176 184 261 256 232 225 225 213 212 229 225 205 199 185 173 181 189 183 171 156 156 163 166 161 159 165 182 179 165 168 172 155 147 157 161 159 159 159 160 163 167 170 169 167 166 167 169 173 177 178 178 180 186 193 194 190 185 183 180 174 170 168 172 181 185 164 163 165 159 165 178 168 156 152 145 147 150 134 118 127 137 149
319 154 176 202 170 168 234 255 236 228 248 236 212 224 230 211 210 207 176 163 167 168 161 155 156 161 167 169 162 161 173 179 166 163 170 163 153 159 165 165 166 167 169 172 174 172 168 168 173 181 188 191 188 184 185 189 192 192 190 187 183 182 181 180 177 172 175 187 196 178 171 175 174 166 162 160 160 159 152 154 156 141 126 123 123 130
247 215 202 195 199 235 270 274 290 338 297 275 244 239 235 205 200 201 164 149 155 158 160 161 163 166 168 170 166 159 164 178 174 161 162 162 157 163 168 169 170 173 173 173 177 178 172 172 181 190 195 201 199 192 190 193 192 190 189 187 186 187 189 188 185 181 185 193 196 182 176 182 192 183 170 168 177 178 175 185 180 154 136 132 124 116
205 244 230 152 180 253 262 255 249 34 287 271 250 241 237 213 185 170 152 156 166 166 167 170 170 165 162 165 165 160 163 178 179 165 163 165 165 168 171 171 173 174 171 168 174 179 174 174 185 193 196 202 207 204 199 195 192 191 191 190 193 194 186 175 173 174 181 191 197 195 190 187 183 178 174 172 181 188 197 213 206 180 152 144 146 138
196 207 183 154 186 226 241 238 204 170 229 260 258 242 231 206 179 173 170 172 176 174 169 167 168 168 171 174 171 166 166 174 176 171 169 170 169 169 170 171 172 173 171 167 167 171 172 171 177 185 188 192 200 206 207 201 193 191 193 195 197 194 180 170 170 172 184 205 211 204 195 187 178 175 175 174 181 193 201 209 208 202 192 182 180 194